{"data":{"norad_id":64124,"epoch":"2026-05-24T22:41:49.642080Z","epoch_age_seconds":82804,"freshness":"FRESH","line1":"1 64124U 25111B   26144.94571345  .00204511  00000+0  15554-2 0  9996","line2":"2 64124  43.0024 234.0732 0001322  35.8046 324.2910 15.70885392 58638","mean_motion":15.70885392,"eccentricity":0.0001322,"inclination_deg":43.0024,"raan_deg":234.0732,"arg_perigee_deg":35.8046,"mean_anomaly_deg":324.291,"bstar":0.0015554,"rev_number":5863,"period_min":91.668049581048,"perigee_km":355.47502465393,"apogee_km":357.25562706888,"semimajor_km":6734.5023258614,"source":"CELESTRAK","updated_at":"2026-05-25T13:38:20.270854Z"}}